Tracking 18850 objects as of 22-Nov-2017
HD Live streaming from Space Station
objects crossing your sky now

COSMOS 1564

Track COSMOS 1564 now!
10-day predictions
COSMOS 1564 is classified as:


NORAD ID: 15003
Int'l Code: 1984-052F
Perigee: 1,430.9 km
Apogee: 1,482.8 km
Inclination: 74.0 °
Period: 114.9 minutes
Semi major axis: 7827 km
RCS: 0.6974 m2 (medium)
Launch date: May 28, 1984
Source: Commonwealth of Independent States (former USSR) (CIS)
Launch site: PLESETSK MISSILE AND SPACE COMPLEX (PKMTR)
aabbcc
Your satellite tracking list
Your tracking list is empty




NASA's NSSDC Master Catalog

Two Line Element Set (TLE):
1 15003U 84052F   17325.87734015 +.00000005 +00000-0 +13532-3 0  9993
2 15003 074.0151 048.4930 0033156 354.7109 130.7444 12.53535392532128
Source of the keplerian elements: AFSPC